Flag for Czech Republic Weather past 2 weeks in Tábor, Czech Republic

Now
76 °F

Overcast.


Feels Like: 78 °F
Forecast: 58 / 77 °F
Wind: 8 mph from Northeast

Location: Kocelovice

Current Time: Jul 22, 2014 at 9:33:07 PM

Latest Report: Jul 22, 2014 at 6:00 PM


Visibility: 16 mi

Pressure: 29.86 "Hg

Humidity: 43%

Dew point: 52 °F

Location of TáborLocation

Historic Weather in Tábor — Graph

°F

Tábor temperature yesterday

Maximum temperature yesterday: 78 °F (at 2:00 PM)
Minimum temperature yesterday: 65 °F (at 11:00 PM)
Average temperature yesterday: 71 °F

Past Weeks' High & Low Weather Summary

 TemperatureHumidityPressure
High88 °F (Jul 20, 5:00 PM)100% (Jul 11, 2:00 AM)30.17 "Hg (Jul 11, 2:00 AM)
Low49 °F (Jul 11, 5:00 AM)29% (Jul 19, 6:00 PM)29.59 "Hg (Jul 8, 5:00 PM)
Average66 °F75%29.91 "Hg
* Reported Jul 7 8:00 PM — Jul 22 6:00 PM, Tábor, Weather by CustomWeather, © 2014

Note: Actual official high and low records may vary slightly from our data, if they occured in-between our weather recording intervals... More about our weather records

Advertising

Tábor weather history for previous 24 hours

 ConditionsComfort  
Time TempWeatherWind HumidityBarometerVisibility
6:00 PM
Jul 22
76 °FOvercast.8 mph43%29.86 "Hg16 mi
5:00 PM78 °FOvercast.9 mph38%29.84 "Hg14 mi
4:00 PM78 °FOvercast.9 mph43%29.83 "Hg14 mi
3:00 PM80 °FOvercast.9 mph46%29.83 "Hg12 mi
2:00 PM75 °FOvercast.9 mph56%29.85 "Hg12 mi
1:00 PM74 °FPartly sunny.8 mph67%29.85 "Hg12 mi
12:00 PM71 °FPartly sunny.9 mph78%29.85 "Hg9 mi
11:00 AM68 °FFog.6 mph89%29.85 "Hg6 mi
10:00 AM67 °FLow clouds.6 mph94%29.84 "Hg4 mi
9:00 AM65 °FLight rain. Low clouds.6 mph98%29.84 "Hg2 mi
8:00 AM64 °FRain. Low clouds.6 mph98%29.83 "Hg2 mi
7:00 AM65 °FRain showers. Cloudy.6 mph98%29.82 "Hg5 mi
6:00 AM64 °FRain showers. Cloudy.2 mph98%29.82 "Hg5 mi
5:00 AM64 °FLight rain. Overcast.3 mph97%29.81 "Hg3 mi
3:00 AM64 °FFog.5 mph98%29.81 "Hg2 mi
2:00 AM64 °FFog.N/A98%29.80 "Hg3 mi
1:00 AM64 °FFog.3 mph98%29.80 "Hg4 mi
12:00 AM64 °FMild.5 mph97%29.82 "Hg6 mi
11:00 PM
Jul 21
65 °FRain showers. Overcast.5 mph97%29.82 "Hg5 mi
10:00 PM66 °FLight rain. Low clouds.N/A97%29.80 "Hg3 mi
9:00 PM66 °FRain. Low clouds.N/A98%29.80 "Hg1 mi
Weather by CustomWeather, © 2014

See weather overviewHow to use our weather pages